Location: *
(60.1759°S, 155.0663°W)
Time: 02:26:11
(UTC+00:00)

SJ 16-02 - Pass Details

Date: 17 September 2019
Orbit: 606 x 617 km, 75.0° (Epoch: 16 October)

Event Time Altitude Azimuth Distance (km) Brightness Sun altitude
Exits shadow 13:47:52 - 16° (NNE) 2,852 4.6 -19.3°
Reaches altitude 10° 13:50:25 10° 31° (NNE) 1,982 3.9 -19.1°
Maximum altitude 13:53:48 22° 80° (E) 1,377 3.7 -18.7°
Drops below altitude 10° 13:57:12 10° 130° (SE) 2,001 5.2 -18.3°
Sets 13:59:51 0° 145° (SE) 2,914 6.0 -18.0°
